Total_Precipitation_Accumulation
1.13 1.29 1.27 1.03 0.92 0.81 0.70 0.69 0.54 0.41 0.39 0.44 0.44 0.42 0.37 0.33 0.35 0.33 0.29 0.35 0.43 0.44 0.47 0.58 0.66 0.80 0.89 0.97 1.08 1.24 1.42 1.55 1.58 1.60 1.59 1.54 1.66 1.71 1.57 1.48 1.64 1.80 1.89 1.94
1.23 1.01 0.65 0.56 0.59 0.70 0.74 0.74 0.58 0.42 0.42 0.52 0.50 0.47 0.38 0.32 0.34 0.31 0.29 0.32 0.41 0.45 0.50 0.56 0.64 0.78 0.86 0.97 1.04 1.20 1.41 1.50 1.48 1.44 1.50 1.51 1.54 1.60 1.62 1.50 1.51 1.64 1.83 1.99
1.00 0.64 0.45 0.59 0.67 0.79 0.76 0.65 0.54 0.52 0.54 0.61 0.66 0.62 0.39 0.32 0.31 0.31 0.33 0.35 0.43 0.46 0.50 0.55 0.62 0.72 0.84 0.98 1.03 1.06 1.27 1.52 1.53 1.50 1.61 1.66 1.74 1.77 1.76 1.63 1.49 1.52 1.61 1.71
0.79 0.48 0.51 0.68 0.69 0.72 0.72 0.42 0.44 0.55 0.74 0.80 0.72 0.88 0.49 0.33 0.32 0.31 0.35 0.41 0.45 0.48 0.50 0.56 0.62 0.74 0.82 0.97 1.15 1.15 1.20 1.41 1.60 1.59 1.57 1.56 1.62 1.64 1.64 1.56 1.45 1.45 1.55 1.63
0.86 0.52 0.55 0.70 0.56 0.53 0.55 0.38 0.46 0.62 0.83 0.86 0.69 0.87 0.57 0.34 0.37 0.31 0.29 0.35 0.39 0.45 0.53 0.59 0.65 0.77 0.89 1.03 1.21 1.30 1.32 1.33 1.50 1.57 1.50 1.47 1.47 1.51 1.61 1.62 1.55 1.48 1.55 1.65
0.68 0.52 0.57 0.53 0.42 0.45 0.51 0.59 0.74 0.87 1.16 1.23 0.56 0.59 0.59 0.48 0.48 0.37 0.32 0.36 0.38 0.46 0.57 0.62 0.70 0.83 0.98 1.10 1.26 1.36 1.42 1.33 1.38 1.59 1.56 1.43 1.39 1.39 1.48 1.58 1.67 1.64 1.58 1.62
0.90 0.69 0.62 0.53 0.63 0.71 0.81 1.18 1.80 1.93 1.78 1.02 0.32 0.38 0.55 0.45 0.44 0.41 0.39 0.42 0.41 0.46 0.57 0.63 0.72 0.86 0.94 1.05 1.18 1.32 1.36 1.36 1.35 1.49 1.58 1.47 1.37 1.35 1.33 1.38 1.50 1.58 1.60 1.56
1.07 0.94 0.69 0.59 0.73 0.91 0.85 1.03 1.41 1.38 0.89 0.43 0.25 0.39 0.47 0.39 0.33 0.33 0.34 0.39 0.40 0.40 0.48 0.57 0.66 0.79 0.88 0.92 1.03 1.19 1.27 1.27 1.30 1.43 1.59 1.59 1.45 1.42 1.30 1.30 1.39 1.45 1.47 1.45
1.00 0.72 0.47 0.44 0.44 0.57 0.76 0.79 0.73 0.99 0.66 0.45 0.37 0.35 0.36 0.27 0.24 0.27 0.30 0.34 0.38 0.40 0.45 0.51 0.60 0.66 0.72 0.82 0.91 1.03 1.20 1.29 1.29 1.32 1.50 1.70 1.68 1.52 1.40 1.27 1.32 1.36 1.37 1.40
1.06 0.82 0.43 0.44 0.59 0.63 0.67 0.73 0.88 1.24 1.04 0.62 0.37 0.34 0.47 0.38 0.33 0.30 0.31 0.33 0.33 0.38 0.48 0.52 0.55 0.58 0.64 0.74 0.82 0.92 1.09 1.23 1.28 1.27 1.34 1.53 1.76 1.69 1.57 1.51 1.35 1.33 1.33 1.37
0.91 1.02 0.67 0.59 0.82 0.79 0.70 0.88 1.06 1.12 0.88 0.76 0.50 0.44 0.50 0.44 0.37 0.34 0.32 0.31 0.32 0.35 0.44 0.48 0.50 0.57 0.62 0.68 0.80 0.90 1.01 1.12 1.18 1.18 1.23 1.33 1.54 1.71 1.72 1.64 1.48 1.33 1.31 1.30
0.88 1.11 0.85 0.54 0.50 0.52 0.64 0.76 0.92 1.15 0.87 0.57 0.54 0.47 0.33 0.29 0.30 0.30 0.29 0.29 0.30 0.34 0.37 0.42 0.46 0.55 0.59 0.65 0.76 0.84 0.92 1.06 1.14 1.16 1.19 1.26 1.34 1.48 1.68 1.62 1.47 1.31 1.27 1.29
1.38 1.61 1.29 0.92 0.76 0.67 0.76 0.69 0.70 0.84 0.90 0.65 0.57 0.45 0.25 0.18 0.21 0.23 0.26 0.27 0.30 0.34 0.36 0.40 0.48 0.50 0.55 0.65 0.71 0.76 0.83 0.97 1.08 1.15 1.18 1.16 1.22 1.30 1.39 1.51 1.45 1.33 1.25 1.23
1.58 1.68 1.21 0.99 0.82 0.76 0.73 0.54 0.53 0.81 1.05 0.64 0.39 0.33 0.23 0.21 0.24 0.25 0.26 0.27 0.29 0.33 0.35 0.39 0.45 0.49 0.53 0.60 0.69 0.71 0.81 0.92 0.96 1.06 1.09 1.08 1.07 1.12 1.16 1.26 1.43 1.41 1.32 1.23
1.31 1.34 0.67 0.42 0.34 0.39 0.43 0.38 0.37 0.56 0.61 0.51 0.31 0.27 0.29 0.27 0.27 0.30 0.31 0.32 0.30 0.31 0.34 0.38 0.44 0.49 0.54 0.61 0.70 0.75 0.78 0.80 0.84 0.94 0.99 1.03 1.05 1.11 1.13 1.10 1.23 1.40 1.35 1.20
1.20 1.17 0.59 0.36 0.27 0.31 0.33 0.28 0.30 0.34 0.35 0.32 0.24 0.25 0.26 0.24 0.20 0.23 0.28 0.32 0.34 0.36 0.37 0.38 0.44 0.48 0.55 0.63 0.72 0.82 0.82 0.81 0.77 0.83 0.92 0.98 1.06 1.18 1.18 1.11 1.14 1.26 1.34 1.27
1.15 1.17 0.98 0.54 0.28 0.47 0.52 0.37 0.35 0.36 0.35 0.36 0.39 0.33 0.26 0.25 0.25 0.29 0.34 0.37 0.38 0.39 0.41 0.41 0.46 0.51 0.59 0.64 0.73 0.83 0.85 0.83 0.79 0.79 0.85 0.91 0.96 1.12 1.18 1.16 1.20 1.24 1.29 1.35
0.91 1.10 1.37 0.90 0.64 0.92 0.48 0.25 0.28 0.33 0.37 0.39 0.38 0.31 0.30 0.32 0.30 0.31 0.36 0.44 0.44 0.42 0.42 0.43 0.48 0.53 0.56 0.62 0.67 0.75 0.79 0.78 0.82 0.82 0.86 0.90 0.91 0.96 1.10 1.20 1.22 1.24 1.25 1.27
0.53 1.04 1.62 1.36 0.98 0.55 0.26 0.22 0.29 0.38 0.43 0.36 0.31 0.29 0.26 0.24 0.22 0.23 0.24 0.32 0.41 0.42 0.43 0.46 0.50 0.53 0.53 0.55 0.60 0.71 0.78 0.76 0.82 0.89 0.91 0.89 0.85 0.88 0.99 1.09 1.20 1.24 1.24 1.19
0.55 1.02 1.78 1.55 1.18 0.56 0.34 0.22 0.20 0.31 0.53 0.33 0.28 0.30 0.28 0.28 0.35 0.28 0.21 0.28 0.37 0.36 0.39 0.45 0.47 0.45 0.48 0.53 0.56 0.68 0.77 0.73 0.80 0.86 0.91 0.84 0.76 0.75 0.78 0.89 1.09 1.20 1.20 1.14
0.94 1.45 1.73 1.32 1.07 0.48 0.31 0.22 0.23 0.50 0.59 0.31 0.28 0.30 0.30 0.35 0.41 0.31 0.27 0.31 0.35 0.32 0.35 0.38 0.41 0.42 0.50 0.55 0.56 0.63 0.73 0.78 0.81 0.85 0.91 0.82 0.75 0.74 0.76 0.83 1.00 1.13 1.19 1.17
0.78 1.07 1.06 0.99 1.12 0.61 0.30 0.31 0.51 0.59 0.33 0.25 0.23 0.24 0.25 0.25 0.23 0.22 0.25 0.30 0.32 0.28 0.28 0.30 0.34 0.39 0.46 0.52 0.57 0.63 0.71 0.77 0.84 0.88 0.86 0.85 0.82 0.79 0.81 0.85 0.97 1.10 1.17 1.22
0.59 0.76 0.77 0.72 0.63 0.43 0.35 0.44 0.46 0.37 0.28 0.21 0.22 0.20 0.20 0.20 0.20 0.24 0.26 0.28 0.30 0.29 0.28 0.28 0.32 0.36 0.44 0.51 0.57 0.67 0.74 0.73 0.80 0.84 0.86 0.86 0.86 0.84 0.85 0.90 0.98 1.10 1.16 1.19
0.39 0.43 0.55 0.53 0.35 0.29 0.30 0.32 0.31 0.27 0.23 0.20 0.20 0.20 0.19 0.19 0.19 0.22 0.25 0.25 0.27 0.28 0.27 0.28 0.31 0.35 0.44 0.51 0.55 0.65 0.72 0.70 0.70 0.75 0.82 0.81 0.84 0.89 0.92 0.96 0.99 1.06 1.15 1.21
0.33 0.39 0.50 0.47 0.29 0.25 0.25 0.25 0.26 0.23 0.20 0.18 0.19 0.20 0.20 0.20 0.20 0.21 0.24 0.25 0.26 0.30 0.30 0.31 0.34 0.37 0.45 0.54 0.60 0.66 0.67 0.65 0.66 0.68 0.78 0.84 0.87 0.93 0.95 0.97 1.01 1.08 1.10 1.23
0.25 0.35 0.48 0.45 0.29 0.33 0.30 0.25 0.25 0.23 0.22 0.22 0.22 0.22 0.19 0.21 0.25 0.23 0.24 0.26 0.28 0.32 0.34 0.33 0.35 0.39 0.47 0.55 0.66 0.69 0.64 0.62 0.65 0.69 0.74 0.82 0.89 0.90 0.89 0.86 0.93 1.08 1.11 1.15